Plattsburgh, NY

7:01 PM EDT on April 23, 2017 (GMT -0400)
Plattsburgh International

Weather History for KPBG - October, 2013

Change the Weather History Date:

Saturday, October 5, 2013

  Actual Average Record
Temperature  
Mean Temperature 56 °F 51 °F  
Max Temperature 64 °F 61 °F 77 °F (1951)
Min Temperature 48 °F 41 °F 29 °F (1950)
Degree Days  
Heating Degree Days 9 14  
Month to date heating degree days 37 65  
Since 1 July heating degree days 318 300  
Cooling Degree Days 0 0  
Month to date cooling degree days 1 0  
Year to date cooling degree days 424 345  
Growing Degree Days 6 (Base 50)    
Moisture  
Dew Point 42 °F    
Average Humidity 60    
Maximum Humidity 80    
Minimum Humidity 39    
Precipitation  
Precipitation T in - 1.04 in (1983)
Month to date precipitation 0.01  
Year to date precipitation 26.84  
Sea Level Pressure  
Sea Level Pressure 30.12 in    
Wind  
Wind Speed 6 mph (North)    
Max Wind Speed 13 mph    
Max Gust Speed 16 mph    
Visibility 10 miles    
Events Rain    
T = Trace of Precipitation, MM = Missing Value Source: NWS Daily Summary

Daily Weather History Graph

Daily Weather History Graph

Search for Another Location

Airport or City:

Trip Planner

Search our weather history database for the weather conditions in past years. The results will help you decide how hot, cold, wet, or windy it might be!

Date:

Astronomy

Oct. 05, 2013 Rise Set
Actual Time 6:56 AM EDT 6:26 PM EDT
Civil Twilight 6:27 AM EDT 6:55 PM EDT
Nautical Twilight 5:53 AM EDT 7:29 PM EDT
Astronomical Twilight 5:19 AM EDT 8:03 PM EDT
Moon 7:36 AM EDT (10/5) 6:40 PM EDT (10/5)
Length of Visible Light 12h 28m
Length of Day
11h 29m
New Moon, 0% of the Moon is Illuminated
Oct 5
New Moon
Oct 11
First Quarter
Oct 18
Full
Oct 26
Last Quarter
Nov 3
New

Hourly Weather History & Observations

Time (EDT) Temp. Dew Point Humidity Pressure Visibility Wind Dir Wind Speed Gust Speed Precip Events Conditions
12:53 AM 55.9 °F 44.1 °F 64% 30.11 in 10.0 mi NNW 3.5 mph - N/A   Overcast
1:53 AM 55.9 °F 44.1 °F 64% 30.09 in 10.0 mi North 6.9 mph - N/A   Overcast
2:53 AM 55.9 °F 43.0 °F 62% 30.10 in 10.0 mi NW 3.5 mph - N/A   Overcast
3:53 AM 55.0 °F 42.1 °F 62% 30.10 in 10.0 mi NNW 6.9 mph - N/A   Overcast
4:53 AM 55.0 °F 41.0 °F 59% 30.11 in 10.0 mi NNW 5.8 mph - 0.00 in Rain Light Rain
5:53 AM 54.0 °F 42.1 °F 64% 30.11 in 10.0 mi Calm Calm - 0.00 in   Overcast
6:53 AM 54.0 °F 42.1 °F 64% 30.12 in 10.0 mi NW 3.5 mph - N/A   Overcast
7:53 AM 55.0 °F 42.1 °F 62% 30.13 in 10.0 mi North 9.2 mph - N/A   Overcast
8:53 AM 55.0 °F 42.1 °F 62% 30.13 in 10.0 mi North 6.9 mph - N/A   Overcast
9:53 AM 55.9 °F 42.1 °F 60% 30.15 in 10.0 mi North 8.1 mph - N/A   Overcast
10:53 AM 57.9 °F 42.1 °F 56% 30.14 in 10.0 mi NNE 8.1 mph - N/A   Mostly Cloudy
11:53 AM 61.0 °F 39.0 °F 44% 30.14 in 10.0 mi NNE 10.4 mph - N/A   Clear
12:53 PM 62.1 °F 37.9 °F 41% 30.14 in 10.0 mi NE 9.2 mph - N/A   Clear
1:53 PM 64.0 °F 41.0 °F 43% 30.11 in 10.0 mi ENE 9.2 mph - N/A   Clear
2:53 PM 63.0 °F 39.9 °F 43% 30.11 in 10.0 mi NNE 6.9 mph 16.1 mph N/A   Mostly Cloudy
3:53 PM 62.1 °F 41.0 °F 46% 30.11 in 10.0 mi NE 8.1 mph - N/A   Mostly Cloudy
4:53 PM 61.0 °F 41.0 °F 48% 30.12 in 10.0 mi NNE 8.1 mph - N/A   Overcast
5:53 PM 60.1 °F 41.0 °F 49% 30.12 in 10.0 mi NE 3.5 mph - N/A   Overcast
6:53 PM 54.0 °F 44.1 °F 69% 30.12 in 10.0 mi Calm Calm - N/A   Scattered Clouds
7:53 PM 54.0 °F 43.0 °F 66% 30.12 in 10.0 mi Calm Calm - N/A   Overcast
8:53 PM 48.0 °F 43.0 °F 83% 30.13 in 10.0 mi Calm Calm - N/A   Clear
9:53 PM 52.0 °F 43.0 °F 71% 30.15 in 10.0 mi West 4.6 mph - N/A   Clear
10:53 PM 52.0 °F 42.1 °F 69% 30.16 in 10.0 mi WNW 5.8 mph - N/A   Clear
11:53 PM 52.0 °F 39.9 °F 63% 30.15 in 10.0 mi NNW 5.8 mph - N/A   Partly Cloudy